Regional Weather Roundup
Issued by NWS

Home | Current Version | Previous Version | Graphics & Text | Print | Product List | Glossary On
Versions: 1 2 3 4 5 6 7 8 9 10 11 12 13 14 15 16 17 18 19 20 21 22 23 24 25 26 27 28 29 30 31 32 33 34 35 36 37 38 39 40 41 42 43 44 45 46 47 48 49 50
000
ASUS43 KLSX 221957
RWRMO

WEATHER SUMMARY FOR MISSOURI
NATIONAL WEATHER SERVICE SPRINGFIELD MO
200 PM CST THU FEB 22 2018

NOTE: "FAIR" INDICATES FEW OR NO CLOUDS BELOW 12,000 FEET WITH NO
       SIGNIFICANT WEATHER AND/OR OBSTRUCTIONS TO VISIBILITY.
       CURRENT SKY AND/OR WEATHER CONDITIONS ARE NOT AVAILABLE FOR
       CHILLICOTHE AND FARMINGTON.

MOZ001>031-035>038-043-044-053-054-222100-
...NORTHERN AND WESTERN MISSOURI...

CITY           SKY/WX    TMP DP  RH WIND       PRES   REMARKS
KANSAS CTY INT CLOUDY    31  29  92 E10       30.31F FOG     WCI  22
ST JOSEPH      CLOUDY    31  30  96 E10       30.31F FOG     WCI  22
CHILLICOTHE      N/A     32  31  96 E3        30.36F
KIRKSVILLE     CLOUDY    32  32 100 SE7       30.36R FOG     WCI  26

$$
MOZ066>068-077>081-088>096-101>105-222100-
...SOUTHWEST MISSOURI...

CITY           SKY/WX    TMP DP  RH WIND       PRES   REMARKS
SPRINGFIELD    CLOUDY    42  39  89 S6        30.29S
JOPLIN         CLOUDY    40  39  97 VRB5      30.28F FOG
BRANSON        CLOUDY    39  39 100 E5        30.28F FOG

$$
MOZ032>034-039>042-045>050-055>058-069>072-222100-
...CENTRAL MISSOURI...

CITY           SKY/WX    TMP DP  RH WIND       PRES   REMARKS
COLUMBIA       NOT AVBL
JEFFERSON CITY CLOUDY    38  35  89 S5        30.36R
ROLLA          CLOUDY    38  38 100 S3        30.31R
SEDALIA        CLOUDY    36  36 100 SE5       30.36R
WARRENSBURG    CLOUDY    32  32 100 CALM      30.35R FOG

$$
MOZ051-052-059>065-222100-
...EAST CENTRAL MISSOURI...

CITY           SKY/WX    TMP DP  RH WIND       PRES   REMARKS
ST LOUIS INTL  CLOUDY    42  42 100 SE10      30.28F FOG

$$
MOZ072>076-082>087-097>100-106>115-222100-
...SOUTH CENTRAL AND SOUTHEAST MISSOURI...

CITY           SKY/WX    TMP DP  RH WIND       PRES   REMARKS
CAPE GIRARDEAU   N/A     48  44  86 E3        30.31F
POPLAR BLUFF   CLOUDY    44  42  93 S5        30.34R
WEST PLAINS    CLOUDY    40  39  97 SE5       30.31F

$$



USA.gov is the U.S. government's official web portal to all federal, state and local government web resources and services.